This demonstration page uses our WeatherBlox Daily Observations layout. Learn more.

Left ArrowRight Arrow

Hourly Observations for March 16, 2021

Temp ( °F °C ) Dew Point ( °F °C ) Humidity (%) Winds ( mph kmh ) Pressure ( in mb ) Visibility ( mi km ) Precip ( " mm )
12:53 am 00:53 Cloudy with Light Rain 60 15.6 53 11.7 78 78 NE 6 9 30.06 1018 10 16 0.02 0.51
1:13 am 01:13 Cloudy with Light Rain 60 15.6 54 12.2 80 80 E 6 9 30.06 1018 9 14 0.00 0.00
1:53 am 01:53 Cloudy with Light Rain 59 15 55 12.8 87 87 E 5 7 30.05 1018 6 10 0.02 0.51
2:53 am 02:53 Cloudy 58 14.4 57 13.9 97 97 NE 7 11 30.04 1017 8 13 0.04 1.02
3:10 am 03:10 Cloudy with Light Rain 58 14.4 56 13.3 93 93 ENE 8 13 30.05 1017 7 11 0.00 0.00
3:18 am 03:18 Cloudy 57 13.9 55 12.8 93 93 NE 8 13 30.05 1018 9 14 0.00 0.00
3:53 am 03:53 Cloudy 55 12.8 52 11.1 90 90 ENE 14 22 30.03 1017 10 16 0.00 0.00
4:07 am 04:07 Cloudy 54 12.2 51 10.6 90 90 ENE 10 17 30.05 1018 10 16 0.00 0.00
4:53 am 04:53 Cloudy 53 11.7 51 10.6 93 93 NE 9 15 30.02 1017 10 16 0.00 0.00
5:53 am 05:53 Cloudy 52 11.1 50 10 93 93 ENE 10 17 30.02 1017 7 11 0.00 0.00
6:53 am 06:53 Cloudy 50 10 47 8.3 89 89 ENE 10 17 30.05 1018 10 16 0.00 0.00
7:53 am 07:53 Cloudy 50 10 48 8.9 93 93 E 8 13 30.05 1018 10 16 0.00 0.00
8:53 am 08:53 Cloudy 49 9.4 46 7.8 90 90 ENE 12 19 30.05 1018 10 16 0.01 0.25
9:53 am 09:53 Cloudy with Light Rain 48 8.9 46 7.8 93 93 ENE 12 19 30.09 1019 3 4 0.00 0.00
10:53 am 10:53 Cloudy with Light Rain 48 8.9 46 7.8 93 93 E 13 20 30.09 1019 3 5 0.01 0.25
11:53 am 11:53 Cloudy 48 8.9 45 7.2 89 89 E 8 13 30.09 1019 10 16 0.00 0.00
12:53 pm 12:53 Cloudy 49 9.4 46 7.8 90 90 E 8 13 30.06 1018 10 16 0.00 0.00
1:53 pm 13:53 Cloudy with Rain 49 9.4 46 7.8 90 90 E 8 13 30.04 1017 5 8 0.06 1.52
2:53 pm 14:53 Cloudy 49 9.4 47 8.3 93 93 ESE 7 11 30.01 1016 10 16 0.02 0.51
3:53 pm 15:53 Cloudy with Light Rain 50 10 48 8.9 93 93 E 7 11 30.02 1017 7 11 0.01 0.25
4:53 pm 16:53 Cloudy 50 10 48 8.9 93 93 ENE 9 15 30.01 1016 10 16 0.00 0.00
5:53 pm 17:53 Cloudy with Light Rain 50 10 48 8.9 93 93 NE 9 15 30.00 1016 10 16 0.02 0.51
6:53 pm 18:53 Cloudy 49 9.4 48 8.9 97 97 ENE 7 11 29.98 1015 10 16 0.01 0.25
7:42 pm 19:42 Cloudy with Heavy Rain 49 9.4 47 8.3 93 93 ENE 6 9 30.00 1016 2 3 0.26 6.60
7:44 pm 19:44 Cloudy with Heavy Rain 49 9.4 48 8.9 97 97 E 5 7 30.01 1016 2 3 0.29 7.37
7:53 pm 19:53 Cloudy with Heavy Rain 49 9.4 48 8.9 97 97 SE 10 17 29.99 1016 1 2 0.62 15.75
8:11 pm 20:11 Cloudy with Light Rain 49 9.4 48 8.9 97 97 Calm 30.01 1016 3 5 0.28 7.11
8:38 pm 20:38 Cloudy with Light Rain 49 9.4 48 8.9 97 97 NNE 8 13 30.01 1016 6 10 0.30 7.62
8:51 pm 20:51 Cloudy with Light Rain 50 10 48 9 94 94 NNE 6 9 30.02 1017 5 8 0.31 7.87
8:53 pm 20:53 Cloudy with Light Rain 50 10 48 8.9 93 93 NE 6 9 30.01 1016 7 11 0.31 7.87
9:53 pm 21:53 Cloudy 50 10 48 8.9 93 93 VRB 3 6 30.04 1017 10 16 0.00 0.00
10:44 pm 22:44 Cloudy with Mist and Fog 50 10 49 9.4 96 96 NE 3 6 30.06 1018 4 6 0.00 0.00
10:53 pm 22:53 Cloudy with Mist and Fog 50 10 48 8.9 93 93 ENE 6 9 30.04 1017 6 10 0.00 0.00
11:14 pm 23:14 Cloudy with Mist and Fog 50 10 48 8.9 93 93 Calm 30.06 1018 6 10 0.00 0.00
11:32 pm 23:32 Cloudy 50 10 49 9.4 96 96 Calm 30.07 1018 8 13 0.00 0.00
11:53 pm 23:53 Cloudy with Mist and Fog 50 10 48 8.9 93 93 NNE 3 6 30.05 1018 6 10 0.00 0.00

Powered by AerisWeather